Location: Calvatone
(45.1167°N, 10.4333°E)
Time: 08:39:40
(UTC+00:00)

METEOR M2 - Pass Details

Date: 12 December 2023
Orbit: 818 x 826 km, 98.4° (Epoch: 24 February)

Event Time Altitude Azimuth Distance (km) Brightness Sun altitude
Rises 17:23:02 0° 202° (SSW) 3,351 ? -18.0°
Reaches altitude 10° 17:25:53 10° 217° (SW) 2,423 ? -18.5°
Maximum altitude 17:30:00 22° 268° (W) 1,723 ? -19.2°
Drops below altitude 10° 17:34:10 10° 319° (NW) 2,435 ? -19.9°
Sets 17:37:03 0° 334° (NNW) 3,372 ? -20.4°
